Location: Johnson City
(36.3130°N, 82.3540°W)
Time: 08:59:15
(UTC-05:00)

N. Korean satellite - Visible Passes

Search period start: 20 February 2018 00:00
Search period end: 02 March 2018 00:00
Orbit: 459 x 514 km, 97.2° (Epoch: 20 February)

Date Brightness Start Highest point End Pass type
(mag) Time Alt. Az. Time Alt. Az. Time Alt. Az.
20 Feb 9.5 19:11:13 10° SW 19:13:49 20° W 19:16:27 10° NW visible
21 Feb 8.7 06:39:50 10° NNE 06:43:13 34° E 06:46:37 10° SSE visible
21 Feb 7.9 18:46:43 10° S 18:50:00 43° W 18:53:20 10° NNW visible
22 Feb 10.1 06:16:53 10° NE 06:19:23 17° E 06:21:52 10° SE visible
23 Feb 10.5 19:35:56 10° W 19:36:13 10° W 19:36:30 10° W visible
24 Feb 9.5 19:09:37 10° SSW 19:12:18 21° W 19:15:01 10° NW visible
25 Feb 7.8 18:45:09 10° S 18:48:28 45° W 18:51:50 10° NNW visible
26 Feb 10.1 06:15:25 10° NE 06:17:53 17° E 06:20:20 10° SE visible
27 Feb 10.4 19:33:50 10° WSW 19:34:39 11° W 19:35:29 10° WNW visible
28 Feb 9.4 19:07:58 10° SSW 19:10:43 22° W 19:13:32 10° NW visible
